ARIANE 42P DEB, 44508

Orbit data source: Space-Track

ARIANE 42P DEB, 44508 is space debris in LEO originally from a launch on Mon, 10 Aug 1992 UTC launched from the French Guiana (FRGUI). Debris objects in space refer to the collection of defunct objects orbiting the Earth. Examples of debris include non-operational satellites, rocket bodies, and fragments generated from explosions, collisions, or faulty payload assembly.

Loading next visibility...
Identifier
44508, 1992-052F
Orbit
LEO
Last TLE update
12 hours ago
Origin
Manufacturer
ArianeGroup
Mission
Spacecraft
Bus & Motor
Unknown
Mass
Unknown
Launch date (UTC)
1992-08-10 (33 years ago)
Launch vehicle
Unknown
Launch site
French Guiana (FRGUI)
Object type
Payload
Rocket body
Debris
Shape & HBR
Unknown
Radar Cross Section
Small (<0.1 m²)

Expand to show TLE details & history

TLE from 12 hours ago
0 ARIANE 42P DEB
1 44508U 92052F   25182.55129381  .00000331  00000-0  14653-2 0  9999
2 44508  66.0337  17.4414 0364336  81.9221 282.2950 12.71900494 58555
Epoch: 2025-07-01T13:13Z
TLE epoch observation values (Epoch: 2025-07-01T13:13:51.785Z)
Latitude
-0.00001°
Longitude
-100.8695°
Altitude
1,325.891 km
Speed
7.218 km/s
True Right ascension
01h 09m 45s
True Declination
0° 00' 00"
Sunlit
Object was in daylight at epoch
Visualization orbit readout
Latitude
-36.28853°
Longitude
97.02395°
Altitude
1,593.67 km
Speed
6.977 km/s
Apparent Right ascension
16h 48m 24s
Apparent Declination
-76° 23' 19"
Sunlit
Object is in daylight
Visualization observer readout
Local Sidereal Time
13:21:11
Azimuth
167.566° S
Elevation
-30.799°
Doppler factor
1
Orbital elements
Apogee altitude
1,655.169 km
Perigee altitude
1,090.382 km
Semi-major axis
7,750.912 km
Eccentricity
0.03643
Inclination
66.0337°
RAAN
17.4414°
Arg. of periapsis
81.9221°
True anomaly
Unknown
Mean anomaly
282.295°
Eccentric anomaly
Unknown
Mean motion
3.18064 °/min
Orbital period
113.18 mins
BSTAR
0.0014653
Loading maneuver chart data...
Loading SW <> Apogee altitude chart data...
Loading historical data...
Loading historical data...
Loading historical data...
Loading historical data...
Loading historical data...
Loading historical data...
Loading historical data...

ARIANE 42P DEB Visibility forecast

Observer location: undefined°, undefined°

Span
Click to sort rows by Start time (UTC) header in descending order
Start Az.
Max El. time (UTC)
Max El. Az.
Max El.
End time (UTC)
End Az.
13 mins2025-07-02 13:51:14.670Z181.983° SSW2025-07-02 13:58:14.670Z109.001° ESE35.658°2025-07-02 14:04:14.670Z43.314° NE
11 mins2025-07-02 15:49:14.670Z250.045° W2025-07-02 15:55:14.670Z318.847° NNW30.065°2025-07-02 16:00:14.670Z12.608° NNE
9 mins2025-07-02 21:51:14.670Z2.939° NNE2025-07-02 21:55:14.670Z45.223° ENE20.914°2025-07-02 22:00:14.670Z89.567° E
13 mins2025-07-02 23:47:14.670Z327.675° NNW2025-07-02 23:52:14.670Z259.355° W44.809°2025-07-03 00:00:14.670Z155.22° SSE
|